Precipitable_Water
0.30 0.25 0.23 0.25 0.26 0.22 0.22 0.21 0.18 0.23 0.26 0.22 0.20 0.20 0.21 0.23 0.23 0.22 0.22 0.22 0.22 0.23 0.28 0.35 0.38 0.41 0.42 0.45 0.47 0.51 0.54 0.58 0.59 0.56 0.55 0.56 0.55 0.61 0.66 0.71 0.73 0.75 0.77 0.81
0.31 0.26 0.27 0.26 0.24 0.21 0.19 0.19 0.20 0.22 0.24 0.20 0.19 0.17 0.19 0.19 0.19 0.20 0.19 0.19 0.19 0.22 0.26 0.35 0.40 0.43 0.44 0.46 0.51 0.54 0.55 0.54 0.55 0.56 0.57 0.55 0.55 0.59 0.65 0.67 0.70 0.72 0.73 0.76
0.26 0.27 0.30 0.27 0.25 0.23 0.23 0.20 0.20 0.20 0.22 0.22 0.17 0.13 0.14 0.17 0.17 0.18 0.20 0.23 0.24 0.26 0.29 0.37 0.43 0.47 0.51 0.51 0.52 0.48 0.49 0.51 0.55 0.56 0.54 0.51 0.53 0.55 0.55 0.59 0.63 0.67 0.71 0.73
0.28 0.31 0.29 0.27 0.24 0.27 0.19 0.26 0.23 0.20 0.17 0.16 0.19 0.12 0.16 0.19 0.21 0.24 0.27 0.32 0.36 0.38 0.39 0.43 0.49 0.50 0.50 0.49 0.46 0.48 0.51 0.54 0.55 0.51 0.47 0.44 0.42 0.41 0.49 0.52 0.56 0.61 0.67 0.68
0.27 0.28 0.27 0.25 0.25 0.26 0.23 0.26 0.22 0.20 0.19 0.17 0.19 0.16 0.19 0.24 0.21 0.24 0.29 0.31 0.36 0.38 0.38 0.40 0.42 0.44 0.45 0.48 0.49 0.50 0.53 0.52 0.50 0.49 0.47 0.45 0.43 0.47 0.49 0.51 0.53 0.57 0.61 0.65
0.29 0.35 0.31 0.27 0.28 0.27 0.27 0.23 0.22 0.22 0.21 0.16 0.21 0.20 0.18 0.22 0.21 0.25 0.29 0.30 0.33 0.34 0.36 0.39 0.44 0.49 0.50 0.54 0.51 0.52 0.49 0.48 0.47 0.46 0.46 0.44 0.41 0.40 0.38 0.39 0.43 0.46 0.53 0.57
0.26 0.26 0.31 0.33 0.25 0.27 0.25 0.21 0.18 0.16 0.15 0.14 0.23 0.16 0.16 0.21 0.22 0.25 0.26 0.30 0.34 0.37 0.39 0.42 0.46 0.50 0.53 0.53 0.54 0.51 0.47 0.44 0.44 0.45 0.45 0.42 0.38 0.35 0.32 0.31 0.30 0.31 0.31 0.35
0.20 0.16 0.28 0.32 0.30 0.27 0.25 0.24 0.18 0.12 0.13 0.16 0.21 0.11 0.17 0.22 0.28 0.29 0.30 0.33 0.39 0.40 0.44 0.47 0.51 0.55 0.56 0.52 0.48 0.46 0.44 0.44 0.45 0.45 0.45 0.42 0.39 0.35 0.34 0.32 0.31 0.31 0.31 0.32
0.23 0.23 0.34 0.36 0.37 0.33 0.28 0.24 0.27 0.18 0.21 0.15 0.15 0.19 0.26 0.30 0.33 0.32 0.34 0.40 0.42 0.47 0.46 0.43 0.43 0.43 0.41 0.42 0.43 0.45 0.46 0.46 0.47 0.48 0.47 0.45 0.42 0.38 0.35 0.35 0.34 0.32 0.32 0.31
0.28 0.23 0.33 0.35 0.39 0.36 0.32 0.33 0.22 0.21 0.12 0.12 0.18 0.19 0.20 0.25 0.29 0.33 0.35 0.39 0.39 0.37 0.35 0.36 0.37 0.37 0.39 0.41 0.43 0.45 0.48 0.49 0.51 0.53 0.51 0.48 0.45 0.42 0.39 0.36 0.33 0.31 0.29 0.27
0.30 0.27 0.28 0.33 0.27 0.27 0.26 0.22 0.24 0.25 0.21 0.15 0.14 0.23 0.30 0.24 0.30 0.32 0.33 0.34 0.35 0.36 0.37 0.38 0.39 0.39 0.40 0.42 0.44 0.44 0.50 0.51 0.53 0.55 0.54 0.51 0.47 0.43 0.40 0.36 0.33 0.31 0.29 0.28
0.30 0.27 0.21 0.20 0.30 0.33 0.31 0.28 0.28 0.20 0.20 0.22 0.21 0.16 0.25 0.29 0.31 0.34 0.34 0.36 0.38 0.38 0.39 0.37 0.31 0.31 0.32 0.37 0.42 0.43 0.48 0.50 0.55 0.57 0.56 0.53 0.49 0.45 0.42 0.39 0.37 0.35 0.31 0.30
0.29 0.22 0.16 0.18 0.25 0.33 0.30 0.33 0.34 0.33 0.29 0.19 0.14 0.14 0.23 0.27 0.28 0.30 0.30 0.32 0.35 0.35 0.30 0.29 0.29 0.30 0.31 0.36 0.39 0.44 0.47 0.50 0.52 0.54 0.53 0.52 0.49 0.46 0.44 0.43 0.42 0.38 0.34 0.32
0.28 0.20 0.16 0.14 0.14 0.19 0.15 0.18 0.24 0.24 0.18 0.15 0.15 0.15 0.20 0.22 0.21 0.23 0.25 0.27 0.27 0.27 0.26 0.27 0.29 0.31 0.32 0.35 0.38 0.40 0.44 0.48 0.51 0.52 0.51 0.49 0.50 0.48 0.47 0.47 0.45 0.42 0.38 0.35
0.25 0.15 0.16 0.15 0.15 0.16 0.15 0.14 0.18 0.17 0.16 0.12 0.12 0.13 0.15 0.19 0.23 0.24 0.24 0.25 0.25 0.26 0.27 0.29 0.31 0.36 0.40 0.40 0.41 0.43 0.44 0.47 0.51 0.52 0.51 0.51 0.52 0.49 0.49 0.49 0.48 0.45 0.41 0.37
0.28 0.17 0.18 0.12 0.15 0.16 0.14 0.16 0.17 0.17 0.19 0.20 0.18 0.16 0.23 0.24 0.25 0.23 0.24 0.24 0.24 0.26 0.29 0.35 0.38 0.41 0.43 0.45 0.45 0.45 0.45 0.48 0.53 0.53 0.53 0.54 0.52 0.49 0.48 0.49 0.50 0.48 0.45 0.40
0.24 0.21 0.18 0.13 0.19 0.17 0.12 0.14 0.16 0.17 0.19 0.20 0.17 0.22 0.26 0.24 0.24 0.25 0.26 0.29 0.32 0.36 0.40 0.42 0.44 0.47 0.51 0.51 0.50 0.45 0.46 0.47 0.48 0.51 0.54 0.54 0.55 0.51 0.50 0.50 0.50 0.49 0.45 0.43
0.29 0.26 0.24 0.18 0.18 0.11 0.18 0.21 0.22 0.23 0.25 0.29 0.29 0.30 0.32 0.33 0.37 0.40 0.42 0.42 0.43 0.46 0.48 0.49 0.51 0.52 0.57 0.57 0.54 0.56 0.56 0.52 0.51 0.51 0.50 0.52 0.54 0.55 0.54 0.52 0.50 0.48 0.45 0.42
0.40 0.35 0.28 0.21 0.20 0.20 0.21 0.24 0.27 0.28 0.29 0.32 0.33 0.35 0.38 0.42 0.44 0.44 0.48 0.49 0.48 0.48 0.50 0.51 0.52 0.54 0.57 0.56 0.55 0.54 0.54 0.53 0.51 0.50 0.50 0.51 0.53 0.52 0.55 0.52 0.52 0.50 0.49 0.43
0.41 0.39 0.32 0.29 0.22 0.18 0.26 0.31 0.36 0.37 0.27 0.33 0.35 0.38 0.41 0.44 0.37 0.42 0.49 0.51 0.51 0.53 0.54 0.54 0.55 0.56 0.58 0.58 0.58 0.57 0.55 0.54 0.51 0.51 0.51 0.52 0.51 0.54 0.54 0.54 0.54 0.56 0.49 0.46
0.36 0.35 0.31 0.31 0.28 0.30 0.38 0.39 0.41 0.28 0.30 0.41 0.43 0.43 0.45 0.43 0.46 0.51 0.54 0.54 0.55 0.55 0.55 0.56 0.56 0.55 0.57 0.59 0.59 0.57 0.58 0.56 0.57 0.58 0.56 0.54 0.51 0.56 0.55 0.53 0.58 0.52 0.53 0.47
0.36 0.33 0.33 0.35 0.32 0.30 0.47 0.43 0.36 0.42 0.46 0.48 0.49 0.50 0.49 0.51 0.53 0.53 0.52 0.51 0.50 0.49 0.50 0.51 0.51 0.51 0.54 0.57 0.58 0.56 0.57 0.60 0.62 0.62 0.61 0.55 0.52 0.52 0.54 0.53 0.56 0.61 0.51 0.46
0.37 0.41 0.39 0.41 0.40 0.51 0.50 0.51 0.55 0.56 0.54 0.53 0.52 0.53 0.54 0.52 0.51 0.49 0.45 0.44 0.46 0.46 0.47 0.48 0.48 0.49 0.52 0.54 0.55 0.53 0.56 0.59 0.60 0.59 0.57 0.56 0.55 0.54 0.57 0.58 0.56 0.52 0.51 0.45
0.49 0.52 0.46 0.47 0.52 0.52 0.56 0.61 0.59 0.57 0.55 0.56 0.56 0.55 0.52 0.48 0.46 0.44 0.44 0.43 0.44 0.45 0.46 0.48 0.48 0.48 0.49 0.53 0.54 0.54 0.55 0.56 0.55 0.52 0.52 0.51 0.50 0.52 0.55 0.56 0.54 0.52 0.49 0.46
0.52 0.54 0.52 0.51 0.56 0.58 0.58 0.57 0.57 0.57 0.57 0.56 0.55 0.52 0.48 0.45 0.42 0.42 0.40 0.40 0.40 0.40 0.40 0.42 0.42 0.44 0.45 0.48 0.49 0.52 0.53 0.54 0.50 0.48 0.48 0.48 0.52 0.52 0.50 0.54 0.54 0.51 0.51 0.51
0.54 0.51 0.47 0.45 0.56 0.55 0.53 0.56 0.56 0.51 0.50 0.50 0.49 0.46 0.46 0.43 0.38 0.40 0.41 0.42 0.42 0.42 0.43 0.42 0.41 0.38 0.38 0.39 0.42 0.46 0.50 0.50 0.48 0.45 0.46 0.49 0.51 0.52 0.52 0.50 0.53 0.56 0.54 0.50
Wind_Speed
20 22 22 19 16 15 21 19 19 15 15 17 21 22 23 23 23 23 23 23 23 23 23 22 22 23 23 24 25 26 27 27 26 26 26 27 28 29 29 30 31 32 32 33
19 17 17 17 16 16 16 16 14 14 14 16 18 22 24 24 25 25 25 25 25 24 24 23 24 24 24 25 26 26 25 25 25 26 27 27 28 28 29 30 30 31 31 31
15 15 15 16 15 14 11 12 12 12 14 16 17 20 21 20 22 23 23 24 24 24 25 25 26 26 25 25 24 23 24 25 25 26 26 27 27 27 27 28 28 29 29 29
14 14 14 14 12 11 12 10 11 11 12 13 13 16 16 18 19 20 23 23 24 25 26 26 25 24 23 22 22 22 23 23 24 24 24 24 25 26 27 27 28 29 29 28
13 13 12 11 9 8 10 10 9 10 11 12 14 15 17 15 18 18 19 19 19 19 20 20 20 20 20 20 21 21 21 21 21 22 23 23 24 24 24 24 25 26 27 27
13 11 9 9 8 7 9 9 10 10 11 12 10 12 13 12 12 12 13 14 15 15 15 16 17 18 18 18 19 19 19 19 20 21 21 21 21 22 22 23 24 24 24 24
10 8 9 8 9 8 8 8 8 8 9 10 8 12 15 13 12 12 13 13 14 15 15 16 17 18 18 18 18 18 18 20 20 19 20 20 21 22 22 23 23 23 23 22
10 10 8 8 7 7 7 8 8 9 8 8 9 11 10 10 12 14 15 14 14 14 14 14 14 14 15 17 18 20 20 20 19 20 20 21 22 22 22 22 22 22 22 21
10 9 10 8 9 9 9 10 9 10 10 11 11 12 15 11 11 10 7 7 7 7 8 11 13 15 18 19 20 20 20 20 20 20 21 21 21 22 22 22 22 22 22 22
8 8 10 10 10 9 9 9 8 8 8 9 9 10 9 7 7 7 8 8 7 9 10 13 15 18 20 20 21 21 21 21 21 21 21 20 20 20 21 21 21 21 21 21
6 5 7 8 11 10 9 9 9 8 8 8 7 4 5 8 8 7 7 8 11 12 13 16 19 21 20 21 21 21 21 21 21 21 20 20 20 20 21 21 21 21 21 21
5 3 6 6 5 6 8 10 10 8 7 8 7 9 6 7 8 9 11 13 14 16 18 21 23 22 21 21 21 21 22 22 23 22 22 22 21 21 21 21 21 21 21 21
5 5 5 4 5 6 7 9 10 9 8 12 9 7 6 7 8 11 15 18 19 21 24 23 22 22 22 22 22 23 24 25 24 24 24 23 23 22 22 21 21 21 21 21
2 3 5 3 2 4 7 10 13 14 11 12 16 16 14 16 17 19 21 21 20 20 21 22 22 23 24 24 24 25 26 27 27 26 26 25 25 24 23 22 22 22 21 21
4 6 7 10 12 13 15 15 16 19 20 16 18 20 20 22 23 20 19 19 19 20 21 22 24 25 25 25 26 27 28 28 28 27 27 27 27 26 25 24 23 23 23 23
7 8 9 11 14 15 18 20 21 22 22 24 25 25 22 19 19 21 20 20 21 23 24 25 27 28 28 28 28 28 28 28 28 29 29 28 28 27 27 26 25 25 25 24
10 10 10 11 10 15 18 17 20 17 17 16 21 19 17 17 17 18 20 22 24 26 27 28 29 30 29 29 29 29 30 30 30 30 31 31 30 29 28 27 27 27 27 26
13 13 12 13 14 12 10 10 13 17 15 17 18 16 15 17 19 23 25 25 26 27 29 31 32 32 30 30 30 30 30 31 31 31 32 32 32 31 30 29 28 28 28 27
18 16 14 13 14 18 14 13 12 12 13 14 16 17 19 21 25 23 18 24 28 31 33 34 34 34 33 33 33 32 32 32 32 32 33 33 32 32 31 30 29 29 28 28
16 17 16 14 15 14 11 12 13 14 17 15 17 21 24 26 25 24 30 33 35 36 37 37 36 36 36 36 36 35 34 34 34 34 34 34 33 33 32 31 30 29 29 29
15 17 21 20 18 19 16 16 16 18 15 17 22 26 28 28 31 36 36 37 37 38 39 40 39 38 38 38 37 36 36 36 36 36 35 35 34 34 32 31 30 29 29 29
18 17 17 19 19 21 16 16 19 19 22 27 29 29 32 35 37 38 39 40 40 41 40 40 39 39 39 39 38 38 38 38 38 37 37 35 34 33 32 31 30 30 29 29
21 21 20 22 20 19 21 27 27 29 31 31 32 34 36 38 39 41 41 41 40 41 41 41 41 41 40 39 39 39 40 40 40 40 39 37 35 33 32 31 30 29 29 28
23 24 25 25 26 27 28 31 32 31 32 33 34 36 38 40 40 39 39 39 39 40 41 41 41 41 41 41 41 42 43 42 42 41 38 36 34 33 32 31 30 29 28 28
23 22 25 31 33 36 35 28 27 31 33 35 36 37 37 36 36 37 37 38 38 39 39 39 40 40 41 42 43 43 43 42 40 38 36 34 32 31 31 30 29 29 28 28
28 29 29 31 33 31 31 32 33 35 35 35 36 35 34 34 35 35 36 37 37 38 39 39 40 40 41 41 41 40 39 38 36 34 32 31 30 29 29 29 28 28 27 27
Wind_Direction
166 166 168 175 190 197 189 198 202 211 222 234 238 246 248 249 248 252 253 255 257 258 260 261 265 270 276 281 287 290 293 295 296 298 299 300 300 300 299 299 299 299 298 297
153 161 172 179 183 183 190 192 203 216 226 238 245 253 253 250 250 252 255 257 259 260 260 262 267 271 277 282 286 290 292 295 297 298 299 300 300 300 300 301 301 301 300 299
157 165 174 175 176 178 189 207 211 228 235 241 257 256 251 250 254 255 256 263 265 265 263 264 268 272 276 281 286 289 291 294 297 299 300 301 302 302 303 303 303 303 302 300
146 164 168 172 178 208 197 213 220 234 244 245 255 257 258 258 257 260 262 262 265 267 267 266 267 270 274 278 283 287 291 295 297 300 302 304 305 305 305 305 305 304 302 300
158 156 160 164 184 205 195 210 222 236 245 257 243 258 261 267 267 266 267 265 266 267 263 261 263 266 271 276 282 287 291 295 298 301 305 306 307 309 310 310 311 312 309 305
148 162 164 168 169 174 188 212 228 240 248 251 252 259 267 268 271 265 268 269 266 264 262 262 264 268 272 275 280 285 290 294 298 302 305 307 310 311 313 315 317 317 316 315
159 161 172 183 186 196 211 219 225 231 240 254 253 259 267 273 268 270 272 273 269 264 262 263 265 270 273 275 279 283 288 293 297 300 304 307 309 310 312 315 317 319 320 320
178 184 193 199 200 213 215 232 235 243 252 273 255 259 271 273 279 274 272 272 266 265 263 265 269 272 275 277 280 284 287 290 294 298 303 306 309 310 312 314 315 317 318 318
187 188 196 203 212 225 222 231 241 252 250 262 262 267 270 273 282 262 261 260 267 254 259 267 275 280 284 282 280 281 284 288 292 296 300 304 306 309 311 313 313 314 316 317
184 193 206 207 218 221 234 222 234 240 260 265 262 267 262 278 281 261 254 260 262 269 277 279 284 288 289 284 283 282 282 286 290 293 296 301 305 307 310 313 314 315 315 316
151 176 177 199 207 207 212 226 232 248 249 263 269 238 257 263 264 259 262 270 277 280 281 288 293 293 290 288 285 282 281 284 286 289 293 298 301 304 307 309 312 314 315 316
129 148 169 187 191 221 234 235 222 234 224 237 257 267 261 272 269 266 278 283 284 284 287 290 295 292 290 287 284 281 281 282 284 285 288 291 295 299 303 305 308 312 314 316
122 144 156 167 188 203 221 221 226 241 251 247 255 260 264 277 276 280 284 286 286 286 290 293 293 292 291 288 285 283 282 282 283 283 284 286 289 293 296 300 303 307 310 312
168 202 223 224 212 224 227 230 229 233 247 258 248 269 268 278 288 293 292 289 288 289 291 292 293 293 291 289 288 285 285 283 282 282 282 283 284 287 291 294 298 301 304 306
259 258 252 258 262 260 259 258 243 240 245 257 265 272 279 288 293 292 292 292 290 290 294 296 296 295 292 291 290 289 287 283 280 280 280 280 281 282 285 288 292 295 298 300
255 268 279 274 269 270 267 262 257 257 257 262 268 275 282 284 289 290 291 291 291 293 295 299 299 295 292 291 291 291 289 286 282 280 279 279 279 280 281 282 286 290 293 295
261 268 275 272 280 287 275 269 248 252 255 265 262 276 285 289 292 296 294 295 295 296 297 299 301 299 293 291 291 292 291 288 283 281 279 277 276 277 278 280 282 285 289 291
264 263 271 275 283 266 271 277 270 249 261 262 266 274 281 289 293 296 293 293 296 299 298 299 300 299 293 291 291 291 291 289 285 282 280 278 275 274 275 277 279 283 286 289
259 258 270 270 268 277 271 265 264 259 273 265 263 274 284 292 297 298 300 299 300 299 299 298 298 297 294 291 291 290 290 290 288 285 282 278 275 273 272 274 276 280 282 287
256 259 258 264 270 271 277 261 266 275 271 269 276 283 290 296 292 293 300 299 298 298 298 297 298 297 292 290 289 288 288 289 288 287 284 280 277 273 270 272 274 278 281 285
260 259 254 259 269 275 270 264 270 272 278 285 289 290 292 291 292 295 297 297 297 298 297 297 295 295 293 290 288 286 287 287 287 287 285 281 276 272 269 270 272 277 279 283
253 253 258 255 265 272 268 266 269 279 282 293 291 290 291 293 295 296 298 298 298 297 297 296 296 295 293 290 287 286 286 286 287 286 284 280 276 271 267 267 270 274 276 280
263 259 265 259 267 272 274 277 278 282 286 289 290 292 293 294 296 298 298 299 300 300 299 298 296 296 294 291 288 287 287 287 286 284 281 277 273 269 266 266 268 272 275 278
266 263 266 273 272 271 277 279 279 283 285 288 290 292 294 295 297 298 299 300 301 301 301 300 298 296 295 293 291 289 288 287 285 282 279 274 269 266 264 264 267 271 273 276
273 268 274 274 277 279 276 276 279 283 287 288 290 293 294 295 296 298 299 301 302 303 304 304 303 301 299 297 294 292 290 287 284 280 276 271 267 263 261 263 266 269 272 274
268 270 272 275 277 276 277 281 285 287 287 289 291 292 292 294 296 298 300 302 304 306 307 307 306 305 304 302 299 296 293 288 283 278 273 268 264 260 259 262 266 268 271 272